Flag for U.S.A. Weather past 2 weeks in McAllen, Texas, U.S.A.

Now
80 °F

Clear.


Feels Like: 84 °F
Forecast: 74 / 92 °F
Wind: 8 mph from Southeast

Location: Miller International Airport

Current Time: Jun 2, 2015 at 10:57:34 PM

Latest Report: Jun 2, 2015 at 9:53 PM


Visibility: 10 mi

Pressure: 29.92 "Hg

Humidity: 76%

Dew point: 72 °F

Location of McAllenLocation

Historic Weather in McAllen — Graph

°F

McAllen temperature yesterday

Maximum temperature yesterday: 91 °F (at 3:53 PM)
Minimum temperature yesterday: 71 °F (at 5:53 AM)
Average temperature yesterday: 80 °F

Past Weeks' High & Low Weather Summary

 TemperatureHumidityPressure
High93 °F (May 25, 3:53 PM)91% (May 22, 6:53 AM)30.08 "Hg (May 22, 6:53 AM)
Low69 °F (May 29, 8:04 AM)44% (Jun 2, 2:53 PM)29.76 "Hg (May 25, 6:53 PM)
Average83 °F75%29.95 "Hg
* Reported May 18 9:53 PM — Jun 2 9:53 PM, McAllen, Weather by CustomWeather, © 2015

Note: Actual official high and low records may vary slightly from our data, if they occured in-between our weather recording intervals... More about our weather records

Advertising

McAllen weather history for previous 24 hours

 ConditionsComfort  
Time TempWeatherWind HumidityBarometerVisibility
9:53 PM
Tue, Jun 2
80 °FClear.8 mph76%29.92 "Hg10 mi
8:53 PM82 °FSunny.8 mph72%29.90 "Hg10 mi
7:53 PM86 °FSunny.9 mph63%29.89 "Hg10 mi
6:53 PM88 °FSunny.15 mph57%29.90 "Hg10 mi
5:53 PM91 °FSunny.10 mph50%29.90 "Hg10 mi
4:53 PM90 °FScattered clouds.15 mph56%29.91 "Hg10 mi
3:53 PM93 °FBroken clouds.8 mph47%29.92 "Hg10 mi
2:53 PM92 °FPassing clouds.8 mph44%29.94 "Hg10 mi
1:53 PM90 °FSunny.7 mph50%29.97 "Hg10 mi
12:53 PM89 °FScattered clouds.5 mph52%29.99 "Hg10 mi
11:53 AM89 °FPassing clouds.10 mph53%30.00 "Hg9 mi
10:53 AM87 °FScattered clouds.9 mph61%30.01 "Hg10 mi
9:53 AM84 °FPassing clouds.10 mph70%30.01 "Hg10 mi
8:53 AM80 °FSunny.7 mph76%30.02 "Hg10 mi
7:53 AM77 °FSunny.5 mph82%30.00 "Hg10 mi
7:02 AM74 °FClear.3 mph85%30.00 "Hg2 mi
6:53 AM73 °FFog.3 mph88%29.99 "Hg3 mi
5:53 AM74 °FClear.3 mph85%29.98 "Hg10 mi
4:53 AM73 °FClear.5 mph88%29.97 "Hg9 mi
3:53 AM73 °FClear.No wind88%29.98 "Hg10 mi
2:53 AM73 °FClear.3 mph88%30.00 "Hg9 mi
1:53 AM74 °FClear.No wind88%30.01 "Hg10 mi
12:53 AM76 °FClear.3 mph82%30.02 "Hg10 mi
11:53 PM
Mon, Jun 1
76 °FClear.5 mph85%30.03 "Hg10 mi
Weather by CustomWeather, © 2015

See weather overviewHow to use our weather pages